Regional Weather Roundup
Issued by NWS

Home | Current Version | Previous Version | Graphics & Text | Print | Product List | Glossary On
Versions: 1 2 3 4 5 6 7 8 9 10 11 12 13 14 15 16 17 18 19 20 21 22 23 24 25 26 27 28 29 30 31 32 33 34 35 36 37 38 39 40 41 42 43 44 45 46 47 48 49 50
468
ASUS45 KPSR 230610
RWRAZ

ARIZONA HOURLY REGIONAL WEATHER ROUNDUP
NATIONAL WEATHER SERVICE PHOENIX AZ
1100 PM MST SUN JAN 22 2017

NOTE: FAIR INDICATES FEW OR NO CLOUDS BELOW 12,000 FEET WITH NO
SIGNIFICANT WEATHER AND/OR OBSTRUCTIONS TO VISIBILITY.

AZZ001>003-036-230700-
NORTHWEST ARIZONA

CITY           SKY/WX    TMP DP  RH WIND       PRES   REMARKS
BULLHEAD CITY  CLOUDY    52  46  82 S8        29.89F
KINGMAN        CLOUDY    45  28  51 E18G26    29.92F
6HR MIN TEMP:  43; 6HR MAX TEMP:  48; 6HR PCP: TRACE;

$$

AZZ004>008-015-016-018-230700-
NORTH CENTRAL ARIZONA

CITY           SKY/WX    TMP DP  RH WIND       PRES   REMARKS
GRAND CANYON   CLOUDY    29  28  96 S9        29.98F WCI  20
6HR MIN TEMP:  29; 6HR MAX TEMP:  30; 6HR PCP:  0.29;

WILLIAMS       CLOUDY    34  23  64 S25G35    29.98F WCI  21
PRESCOTT       CLOUDY    39  32  76 SE10      30.07R WCI  32
6HR MIN TEMP:  38; 6HR MAX TEMP:  40; 6HR PCP: TRACE;

FLAGSTAFF      LGT SNOW  27  25  92 SW18      30.06S FOG     WCI  14
6HR MIN TEMP:  28; 6HR MAX TEMP:  29; 6HR PCP: TRACE;

PAYSON         CLOUDY    37  32  81 NE3       30.15R
PAGE           CLOUDY    37  32  82 CALM      29.95F
6HR MIN TEMP:  37; 6HR MAX TEMP:  40; 6HR PCP:  0.04;

$$

AZZ009>014-017-230700-
NORTHEAST ARIZONA

CITY           SKY/WX    TMP DP  RH WIND       PRES   REMARKS
WINSLOW        MOCLDY    36  30  79 VRB3      30.05R
6HR MIN TEMP:  36; 6HR MAX TEMP:  39;

SAINT JOHNS    CLOUDY    33  32  96 N3        30.05F
6HR MIN TEMP:  32; 6HR MAX TEMP:  40;

SHOW LOW       PTCLDY    32  19  59 SE12      30.08F WCI  23
$$

AZZ023-230700-
GREATER PHOENIX AREA

CITY           SKY/WX    TMP DP  RH WIND       PRES   REMARKS
PHOENIX        CLOUDY    54  43  66 CALM      30.04R
6HR MIN TEMP:  52; 6HR MAX TEMP:  60;

BUCKEYE        CLOUDY    55  39  54 E7        30.06R
LUKE AFB       CLOUDY    51  46  83 NW9       30.05R
6HR MIN TEMP:  51; 6HR MAX TEMP:  59;

DEER VALLEY    CLOUDY    53  40  61 E5        30.04S
6HR MIN TEMP:  51; 6HR MAX TEMP:  58;

SCOTTSDALE     CLOUDY    53  39  59 NW5       30.07R
6HR MIN TEMP:  51; 6HR MAX TEMP:  59;

MESA-GATEWAY   CLOUDY    46  41  81 SE8       30.05S
$$

AZZ027-028-230700-
SOUTHWEST MARICOPA COUNTY AND PINAL COUNTY

CITY           SKY/WX    TMP DP  RH WIND       PRES   REMARKS
CASA GRANDE    MOCLDY    47  40  76 SE3       30.07R
6HR MIN TEMP:  46; 6HR MAX TEMP:  59;

GILA BEND      CLOUDY    52  44  73 SE6       30.03S
6HR MIN TEMP:  52; 6HR MAX TEMP:  65;

$$

AZZ503-504-507>509-230700-
SOUTHEAST ARIZONA

CITY           SKY/WX    TMP DP  RH WIND       PRES   REMARKS
TUCSON         CLEAR     48  34  58 E6        30.11S
6HR MIN TEMP:  48; 6HR MAX TEMP:  63;

DAVIS-MONTHAN  CLEAR     44  35  72 SE6       30.10S
6HR MIN TEMP:  44; 6HR MAX TEMP:  61;

NOGALES        CLEAR     39  26  59 E3        30.14R
6HR MIN TEMP:  39; 6HR MAX TEMP:  62;

SIERRA VISTA   CLEAR     44  29  55 CALM      30.15R
6HR MIN TEMP:  43; 6HR MAX TEMP:  59;

DOUGLAS        CLEAR     43  35  73 E6        30.15R
6HR MIN TEMP:  40; 6HR MAX TEMP:  56;

SAFFORD        CLEAR     41  35  79 CALM      30.12S
6HR MIN TEMP:  39; 6HR MAX TEMP:  53;

$$

AZZ020-021-025-026-031-230700-
SOUTHWEST ARIZONA

CITY           SKY/WX    TMP DP  RH WIND       PRES   REMARKS
YUMA           MOCLDY    59  47  64 SE18      29.95F
6HR MIN TEMP:  59; 6HR MAX TEMP:  66; 6HR PCP: TRACE;

$$

CAZ031-033-041-043-047-048-061-230700-
SOUTHERN CALIFORNIA

CITY           SKY/WX    TMP DP  RH WIND       PRES   REMARKS
DOWNTOWN L.A.  LGT RAIN  56  54  93 CALM      29.91S
6HR MIN TEMP:  52; 6HR MAX TEMP:  56; 6HR PCP:  0.54;

L.A. AIRPORT   CLOUDY    56  54  93 S10G17    29.92S
6HR MIN TEMP:  52; 6HR MAX TEMP:  57; 6HR PCP:  0.40;

SAN DIEGO      LGT RAIN  58  55  90 S22G30    30.00R FOG
6HR MIN TEMP:  57; 6HR MAX TEMP:  61; 6HR PCP:  0.35;

BURBANK        LGT RAIN  53  50  89 SE12      29.89S
6HR MIN TEMP:  50; 6HR MAX TEMP:  53; 6HR PCP:  0.16;

ONTARIO        CLOUDY    52  52 100 W6        29.93R
6HR MIN TEMP:  49; 6HR MAX TEMP:  52; 6HR PCP:  0.88;

PALM SPRINGS   LGT RAIN  49  49 100 SE5       29.94S
6HR MIN TEMP:  48; 6HR MAX TEMP:  50; 6HR PCP:  1.26;

EL CENTRO NAS  PTCLDY    54  52  93 S6        29.93F
6HR MIN TEMP:  54; 6HR MAX TEMP:  67; 6HR PCP:  0.05;

IMPERIAL       MOCLDY    57  54  89 SE16      29.92F
6HR MIN TEMP:  57; 6HR MAX TEMP:  67; 6HR PCP:  0.05;

BLYTHE         CLOUDY    58  47  66 S7        29.94F
6HR MIN TEMP:  58; 6HR MAX TEMP:  63; 6HR PCP: TRACE;

NEEDLES        CLOUDY    58  42  55 S10       29.90F
6HR MIN TEMP:  53; 6HR MAX TEMP:  58;

$$

NVZ020-UTZ003-230700-
SOUTHERN NEVADA-UTAH

CITY           SKY/WX    TMP DP  RH WIND       PRES   REMARKS
LAS VEGAS      CLOUDY    49  40  71 E3        29.79F
6HR MIN TEMP:  46; 6HR MAX TEMP:  49; 6HR PCP:  0.08;

SALT LAKE CITY CLOUDY    36  31  82 S13       29.68S WCI  27
6HR MIN TEMP:  34; 6HR MAX TEMP:  38; 6HR PCP: TRACE;

$$

NMZ009-TXZ055-230700-
NEW MEXICO-WEST TEXAS

CITY           SKY/WX    TMP DP  RH WIND       PRES   REMARKS
ALBUQUERQUE    CLOUDY    38  30  73 SE6       30.09F WCI  33
6HR MIN TEMP:  37; 6HR MAX TEMP:  42;

EL PASO        CLEAR     48  26  42 W12       30.12F
6HR MIN TEMP:  46; 6HR MAX TEMP:  53;

$$


........................KEY........................
SKY/WX - SKY CONDITION/WEATHER
TMP    - TEMPERATURE IN FAHRENHEIT
DP     - DEW POINT IN FAHRENHEIT
RH     - RELATIVE HUMIDITY IN PERCENT
WIND   - DIRECTION AND SPEED IN MILES PER HOUR (MPH)
VRB    - VARIABLE WIND DIRECTION
PRES   - MEAN SEA LEVEL PRESSURE IN INCHES OF MERCURY
         F - FALLING PRESSURE   R - RISING PRESSURE
         S - STEADY PRESSURE
VSB    - VISIBILITY IN MILES
HX     - HEAT INDEX IN FAHRENHEIT
WCI    - WIND CHILL INDEX IN FAHRENHEIT
TC     - TEMPERATURE IN CELSIUS WHICH IS ALSO KNOWN AS
         TEMPERATURE IN CENTIGRADE
AFB    - AIR FORCE BASE
         LUKE AFB IS LUKE AIR FORCE BASE
         DAVIS-MONTHAN IS DAVIS-MONTHAN AIR FORCE BASE
NAS    - NAVAL AIR STATION
         EL CENTRO NAS IS EL CENTRO NAVAL AIR STATION
N/A    - NOT AVAILABLE





USA.gov is the U.S. government's official web portal to all federal, state and local government web resources and services.